Tracking 35334 objects as of 13-Sep-2026
HD Live streaming from Space Station
objects crossing your sky now

SL-12 DEB


SL-12 DEB is no longer on orbit


NORAD ID: 28751
Int'l Code: 2002-037AW
Launch date: July 25, 2002
Source: Commonwealth of Independent States (former USSR) (CIS)
Launch site: TYURATAM MISSILE AND SPACE COMPLEX (TTMTR)
Decay date: 2006-04-30

Note: This is SATELLITE DEBRIS
Your satellite tracking list
Your tracking list is empty




NASA's NSSDC Master Catalog

Two Line Element Set (TLE):
1 28751U 02037AW  06120.46382712  .11660924  86062-5  78755-3 0  9998
2 28751 063.2997 044.7128 0006278 085.6031 282.4562 16.40896705 46750
Source of the keplerian elements: AFSPC